DECAYED

COSMOS 2251 DEB, 37515 (Decayed)

Orbit data source: Space-Track

COSMOS 2251 DEB, 37515 was space debris in LEO originally from a launch on Wed, 16 Jun 1993 UTC launched from the Plesetsk Missile And Space Complex (PKMTR). The debris from Iridium 33, an American commercial communications satellite, has been tracked extensively since its accidental collision with the defunct Russian satellite Cosmos 2251 in 2009. This event, occurring at high speed in low Earth orbit (LEO), generated thousands of pieces of space debris, significantly increasing the risk of further collisions. The Iridium 33 debris cloud has impacted space traffic management and orbital debris mitigation strategies, making it a subject of ongoing study in space situational awareness.

Not visible in the next 10 days
Identifier
37515, 1993-036BMU
Orbit
Decayed
Country
Flag of CISCIS
Related business
Manufacturer
Unknown
Mission
Decayed spacecraft
Bus & Motor
Unknown
Mass
Unknown
Launch date (UTC)
1993-06-16 (33 years ago)
Launch vehicle
Unknown
Launch site
Plesetsk Missile And Space Complex (PKMTR)
Object type
Payload
Rocket body
Debris
Shape & HBR
Unknown shape, 0.1 m
Radar Cross Section
Small (<0.1 m²)

Expand to show TLE details & history
Last TLE update: 5 months ago

TLE from 5 months ago
0 COSMOS 2251 DEB
1 37515U 93036BMU 25331.30326772  .03205678  00000-0  14964-1 0  9992
2 37515  74.0831 282.2028 0026586 170.1233 190.0525 15.79250759855431
Epoch: 2025-11-27T07:16Z
TLE epoch observation values (Epoch: 2025-11-27T07:16:42.331Z)
Latitude
0.00006°
Longitude
106.56432°
Altitude
352.919 km
Speed
7.687 km/s
True Right ascension
18h 48m 48s
True Declination
0° 00' 00"
Sunlit
Object was in daylight at epoch
Visualization orbit readout
Latitude
Unknown
Longitude
Unknown
Altitude
Unknown
Speed
Unknown
Apparent Right ascension
Unknown
Apparent Declination
Unknown
Sunlit
N/A
Visualization observer readout
Local Sidereal Time
12:33:53
Azimuth
Unknown
Elevation
Unknown
Doppler factor
Unknown
Orbital elements
Apogee altitude
347.86 km
Perigee altitude
312.192 km
Semi-major axis
6,708.163 km
Eccentricity
0.00266
Inclination
74.0831°
RAAN
282.2028°
Arg. of periapsis
170.1233°
True anomaly
189.9995°
Mean anomaly
190.0525°
Eccentric anomaly
190.02598°
Mean motion
3.95037 °/min
Orbital period
91.13 mins
BSTAR
0.014964

Documentation

Showing up to 5 results
|